Biloxi, MS

8:46 PM CST on December 15, 2017 (GMT -0600)
Keesler Air Force Base

Weather History for KBIX - November, 2011

Change the Weather History Date:

Thursday, November 24, 2011

  Actual Average Record
Temperature  
Mean Temperature 55 °F -  
Max Temperature 64 °F 68 °F 80 °F (1978)
Min Temperature 46 °F 51 °F 25 °F (1970)
Degree Days  
Heating Degree Days 10    
Growing Degree Days 5 (Base 50)    
Moisture  
Dew Point 50 °F    
Average Humidity 82    
Maximum Humidity 99    
Minimum Humidity 52    
Precipitation  
Precipitation 0.00 in - - ()
Sea Level Pressure  
Sea Level Pressure 30.28 in    
Wind  
Wind Speed 7 mph (ENE)    
Max Wind Speed 10 mph    
Max Gust Speed -    
Visibility 10 miles    
Events      
Averages and records for this station are not official NWS values.
T = Trace of Precipitation, MM = Missing Value Source: NWS Daily Summary

Daily Weather History Graph

Daily Weather History Graph

Search for Another Location

Airport or City:

Trip Planner

Search our weather history database for the weather conditions in past years. The results will help you decide how hot, cold, wet, or windy it might be!

Date:

Astronomy

Nov. 24, 2011 Rise Set
Actual Time 6:28 AM CST 4:55 PM CST
Civil Twilight 6:03 AM CST 5:21 PM CST
Nautical Twilight 5:33 AM CST 5:50 PM CST
Astronomical Twilight 5:04 AM CST 6:19 PM CST
Moon 5:45 AM CST (11/24) 4:28 PM CST (11/24)
Length of Visible Light 11h 18m
Length of Day
10h 26m
Waning Crescent, 0% of the Moon is Illuminated
Nov 24
Waning Crescent
Nov 25
New
Dec 2
First Quarter
Dec 10
Full
Dec 17
Last Quarter

Hourly Weather History & Observations

Time (CST) Temp. Dew Point Humidity Pressure Visibility Wind Dir Wind Speed Gust Speed Precip Events Conditions
12:55 AM 51.4 °F 49.5 °F 93% 30.24 in 10.0 mi NNE 8.1 mph - N/A   Clear
1:55 AM 51.1 °F 48.9 °F 92% 30.23 in 10.0 mi NNE 8.1 mph - N/A   Clear
2:55 AM 50.2 °F 48.2 °F 93% 30.24 in 10.0 mi NNE 10.4 mph - N/A   Clear
3:55 AM 49.1 °F 47.7 °F 95% 30.24 in 10.0 mi NNE 8.1 mph - N/A   Clear
4:55 AM 48.7 °F 47.7 °F 96% 30.26 in 10.0 mi NNE 9.2 mph - N/A   Clear
5:55 AM 47.1 °F 46.4 °F 97% 30.29 in 10.0 mi NE 8.1 mph - N/A   Clear
6:55 AM 46.6 °F 46.2 °F 99% 30.30 in 10.0 mi NE 5.8 mph - N/A   Clear
7:55 AM 49.3 °F 48.2 °F 96% 30.32 in 10.0 mi NE 9.2 mph - N/A   Clear
8:55 AM 53.8 °F 47.8 °F 80% 30.33 in 10.0 mi NE 10.4 mph - N/A   Clear
9:55 AM 58.3 °F 47.3 °F 67% 30.32 in 10.0 mi NE 9.2 mph - N/A   Clear
10:55 AM 61.9 °F 48.2 °F 61% 30.30 in 10.0 mi East 4.6 mph - N/A   Clear
11:55 AM 64.8 °F 46.6 °F 52% 30.29 in 10.0 mi Calm Calm - N/A   Clear
12:55 PM 64.6 °F 49.6 °F 58% 30.27 in 10.0 mi South 9.2 mph - N/A   Clear
1:55 PM 63.7 °F 50.7 °F 63% 30.27 in 10.0 mi SSE 6.9 mph - N/A   Clear
2:55 PM 63.5 °F 52.5 °F 67% 30.27 in 10.0 mi South 8.1 mph - N/A   Clear
3:55 PM 63.0 °F 53.1 °F 70% 30.27 in 10.0 mi SSE 8.1 mph - N/A   Clear
4:55 PM 61.5 °F 52.5 °F 72% 30.27 in 10.0 mi ESE 5.8 mph - N/A   Clear
5:55 PM 60.3 °F 51.6 °F 73% 30.28 in 10.0 mi Calm Calm - N/A   Clear
6:55 PM 59.9 °F 52.0 °F 75% 30.27 in 10.0 mi ESE 3.5 mph - N/A   Clear
7:55 PM 57.2 °F 53.8 °F 88% 30.29 in 10.0 mi Calm Calm - N/A   Clear
8:55 PM 52.9 °F 52.0 °F 97% 30.29 in 10.0 mi NE 4.6 mph - N/A   Clear
9:55 PM 52.9 °F 52.5 °F 99% 30.29 in 10.0 mi Calm Calm - N/A   Clear
10:55 PM 52.0 °F 51.3 °F 97% 30.28 in 10.0 mi Calm Calm - N/A   Clear
11:55 PM 50.9 °F 49.8 °F 96% 30.27 in 10.0 mi NE 4.6 mph - N/A   Clear